Tracking 30109 objects as of 12-Dec-2024
HD Live streaming from Space Station
objects crossing your sky now

AYRIS-2

Track AYRIS-2 now!
10-day predictions


NORAD ID: 56986
Int'l Code: 2023-084BG
Perigee: 431.9 km
Apogee: 441.5 km
Inclination: 97.5 °
Period: 93.2 minutes
Semi major axis: 6807 km
RCS: Unknown
Launch date: June 12, 2023
Source: Israel (ISRA)
Launch site: AIR FORCE WESTERN TEST RANGE (AFWTR)
Your satellite tracking list
Your tracking list is empty




NASA's NSSDC Master Catalog

Two Line Element Set (TLE):
1 56986U 23084BG  24346.83334375  .00063751  00000-0  13157-2 0  9997
2 56986  97.5484 110.3223 0007090  94.2124 265.9935 15.45621852 83428
Source of the keplerian elements: AFSPC